Weather History for Wasilla, AK

Change the Weather History Date:

Thursday, April 10, 2014

  Actual Average Record
Temperature  
Mean Temperature 24 °F -  
Max Temperature 37 °F 45 °F 56 °F (1969)
Min Temperature 10 °F 24 °F -6 °F (1985)
Degree Days  
Heating Degree Days 42    
Moisture  
Dew Point 4 °F    
Average Humidity 41    
Maximum Humidity 67    
Minimum Humidity 24    
Precipitation  
Precipitation 0.00 in - - ()
Sea Level Pressure  
Sea Level Pressure 29.95 in    
Wind  
Wind Speed 6 mph (East)    
Max Wind Speed 21 mph    
Max Gust Speed 28 mph    
Visibility 10 miles    
Events      
Averages and records for this station are not official NWS values.
T = Trace of Precipitation, MM = Missing Value Source: NWS Daily Summary

Daily Weather History Graph

Daily Weather History Graph

Search for Another Location

Airport:

Trip Planner

Search our weather history database for the weather conditions in past years. The results will help you decide how hot, cold, wet, or windy it might be!

Date:

Astronomy

Apr. 10, 2014 Rise Set
Actual Time 6:51 AM AKDT 9:09 PM AKDT
Civil Twilight 6:03 AM AKDT 9:56 PM AKDT
Nautical Twilight 5:01 AM AKDT 11:00 PM AKDT
Astronomical Twilight 3:34 AM AKDT 12:31 AM AKDT
Moon 3:55 PM AKDT (4/10) 5:31 AM AKDT (4/10)
Length of Visible Light 15h 53m
Length of Day
14h 17m
Waxing Gibbous, 81% of the Moon is Illuminated
Apr 10
Waxing Gibbous
Apr 14
Full
Apr 21
Last Quarter
Apr 28
New
May 6
First Quarter

Hourly Weather History & Observations

Time (AKDT) Temp. Windchill Dew Point Humidity Pressure Visibility Wind Dir Wind Speed Gust Speed Precip Events Conditions
12:16 AM 24.8 °F 16.9 °F 1.4 °F 36% 29.84 in 10.0 mi ENE 6.9 mph - N/A   Clear
12:36 AM 24.8 °F 19.1 °F 1.4 °F 36% 29.84 in 10.0 mi NNW 4.6 mph - N/A   Clear
12:56 AM 23.0 °F 18.4 °F 1.4 °F 39% 29.85 in 10.0 mi NNW 3.5 mph - N/A   Clear
1:16 AM 21.2 °F 16.4 °F 1.4 °F 42% 29.86 in 10.0 mi North 3.5 mph - N/A   Clear
1:36 AM 21.2 °F 16.4 °F 1.4 °F 42% 29.86 in 10.0 mi WSW 3.5 mph - N/A   Clear
1:56 AM 17.6 °F 12.3 °F 3.2 °F 53% 29.87 in 10.0 mi West 3.5 mph - N/A   Clear
2:16 AM 17.6 °F 12.3 °F 3.2 °F 53% 29.88 in 10.0 mi SW 3.5 mph - N/A   Clear
2:36 AM 15.8 °F 8.6 °F 1.4 °F 53% 29.88 in 10.0 mi WSW 4.6 mph - N/A   Clear
2:56 AM 15.8 °F 10.2 °F 1.4 °F 53% 29.88 in 10.0 mi West 3.5 mph - N/A   Clear
3:16 AM 14.0 °F 5.1 °F 1.4 °F 57% 29.88 in 10.0 mi West 5.8 mph - N/A   Clear
3:36 AM 15.8 °F 10.2 °F 3.2 °F 58% 29.89 in 10.0 mi WNW 3.5 mph - N/A   Clear
3:56 AM 14.0 °F 6.5 °F 1.4 °F 57% 29.89 in 10.0 mi West 4.6 mph - N/A   Clear
4:16 AM 14.0 °F 6.5 °F 1.4 °F 57% 29.89 in 10.0 mi NW 4.6 mph - N/A   Clear
4:36 AM 14.0 °F 8.2 °F 1.4 °F 57% 29.88 in 10.0 mi North 3.5 mph - N/A   Clear
4:56 AM 17.6 °F 5.0 °F -0.4 °F 45% 29.88 in 10.0 mi NE 11.5 mph - N/A   Clear
5:16 AM 19.4 °F 7.2 °F -5.8 °F 33% 29.89 in 10.0 mi NE 11.5 mph - N/A   Clear
5:36 AM 17.6 °F 7.3 °F -5.8 °F 35% 29.89 in 10.0 mi ENE 8.1 mph - N/A   Clear
5:56 AM 17.6 °F 12.3 °F -5.8 °F 35% 29.89 in 10.0 mi West 3.5 mph - N/A   Clear
6:16 AM 10.4 °F 0.8 °F -0.4 °F 62% 29.89 in 10.0 mi West 5.8 mph - N/A   Clear
6:36 AM 10.4 °F - 1.4 °F 67% 29.89 in 10.0 mi Calm Calm - N/A   Clear
6:56 AM 10.4 °F - 1.4 °F 67% 29.89 in 10.0 mi Calm Calm - N/A   Clear
7:16 AM 17.6 °F 4.3 °F -0.4 °F 45% 29.90 in 10.0 mi ENE 12.7 mph 24.2 mph N/A   Clear
7:36 AM 17.6 °F 5.7 °F -5.8 °F 35% 29.90 in 10.0 mi NNE 10.4 mph 18.4 mph N/A   Clear
7:56 AM 19.4 °F 6.6 °F -4.0 °F 36% 29.90 in 10.0 mi NE 12.7 mph 21.9 mph N/A   Clear
8:16 AM 19.4 °F 5.5 °F -5.8 °F 33% 29.91 in 10.0 mi ENE 15.0 mph 23.0 mph N/A   Clear
8:36 AM 21.2 °F 8.3 °F -5.8 °F 30% 29.91 in 10.0 mi ENE 13.8 mph 23.0 mph N/A   Clear
8:56 AM 21.2 °F 6.8 °F -5.8 °F 30% 29.92 in 10.0 mi NE 17.3 mph 21.9 mph N/A   Clear
9:16 AM 21.2 °F 7.3 °F -5.8 °F 30% 29.92 in 10.0 mi ENE 16.1 mph 26.5 mph N/A   Clear
9:36 AM 23.0 °F 8.0 °F -5.8 °F 28% 29.93 in 10.0 mi ENE 20.7 mph 27.6 mph N/A   Clear
9:56 AM 24.8 °F 16.1 °F -4.0 °F 28% 29.93 in 10.0 mi ENE 8.1 mph 25.3 mph N/A   Clear
10:16 AM 23.0 °F 14.7 °F -2.2 °F 33% 29.93 in 10.0 mi East 6.9 mph - N/A   Clear
10:36 AM 24.8 °F 16.9 °F 5.0 °F 43% 29.94 in 10.0 mi ESE 6.9 mph - N/A   Clear
10:56 AM 24.8 °F 15.3 °F 3.2 °F 40% 29.94 in 10.0 mi East 9.2 mph - N/A   Clear
11:16 AM 24.8 °F 16.9 °F 5.0 °F 43% 29.95 in 10.0 mi ENE 6.9 mph - N/A   Clear
11:36 AM 26.6 °F 19.1 °F 3.2 °F 37% 29.96 in 10.0 mi ESE 6.9 mph - N/A   Clear
11:56 AM 26.6 °F 20.0 °F 3.2 °F 37% 29.96 in 10.0 mi ESE 5.8 mph - N/A   Clear
12:16 PM 26.6 °F 21.2 °F 5.0 °F 40% 29.96 in 10.0 mi SE 4.6 mph - N/A   Clear
12:36 PM 26.6 °F 21.2 °F 5.0 °F 40% 29.97 in 10.0 mi East 4.6 mph - N/A   Clear
12:56 PM 28.4 °F 23.3 °F 6.8 °F 40% 29.97 in 10.0 mi SSE 4.6 mph - N/A   Clear
1:16 PM 28.4 °F 21.2 °F 6.8 °F 40% 29.97 in 10.0 mi SE 6.9 mph - N/A   Clear
1:36 PM 30.2 °F 22.6 °F 6.8 °F 37% 29.97 in 10.0 mi ENE 8.1 mph - N/A   Clear
1:56 PM 30.2 °F 25.4 °F 6.8 °F 37% 29.97 in 10.0 mi East 4.6 mph - N/A   Clear
2:16 PM 30.2 °F 24.3 °F 5.0 °F 34% 29.97 in 10.0 mi ENE 5.8 mph - N/A   Clear
2:36 PM 32.0 °F 27.5 °F 6.8 °F 35% 29.98 in 10.0 mi East 4.6 mph - N/A   Clear
2:56 PM 33.8 °F 29.6 °F 6.8 °F 32% 29.98 in 10.0 mi East 4.6 mph - N/A   Clear
3:16 PM 33.8 °F 29.6 °F 6.8 °F 32% 29.98 in 10.0 mi East 4.6 mph - N/A   Clear
3:36 PM 33.8 °F 29.6 °F 6.8 °F 32% 29.98 in 10.0 mi East 4.6 mph - N/A   Clear
3:56 PM 35.6 °F 30.7 °F 6.8 °F 30% 29.98 in 10.0 mi SSE 5.8 mph - N/A   Clear
4:16 PM 35.6 °F 32.8 °F 6.8 °F 30% 29.98 in 10.0 mi South 3.5 mph - N/A   Clear
4:36 PM 35.6 °F 32.8 °F 6.8 °F 30% 29.98 in 10.0 mi SSE 3.5 mph - N/A   Clear
4:56 PM 35.6 °F - 8.6 °F 33% 29.98 in 10.0 mi Calm Calm - N/A   Clear
5:16 PM 37.4 °F 33.8 °F 10.4 °F 33% 29.98 in 10.0 mi SE 4.6 mph - N/A   Clear
5:36 PM 35.6 °F 30.7 °F 10.4 °F 35% 29.99 in 10.0 mi South 5.8 mph - N/A   Clear
5:56 PM 35.6 °F 32.8 °F 10.4 °F 35% 29.99 in 10.0 mi SSW 3.5 mph - N/A   Clear
6:16 PM 35.6 °F - 10.4 °F 35% 29.99 in 10.0 mi Calm Calm - N/A   Clear
6:36 PM 37.4 °F 32.8 °F 8.6 °F 30% 29.99 in 10.0 mi South 5.8 mph - N/A   Clear
6:56 PM 35.6 °F 31.7 °F 8.6 °F 33% 30.00 in 10.0 mi South 4.6 mph - N/A   Clear
7:16 PM 35.6 °F 32.8 °F 8.6 °F 33% 30.00 in 10.0 mi South 3.5 mph - N/A   Clear
7:36 PM 35.6 °F 31.7 °F 8.6 °F 33% 30.00 in 10.0 mi SW 4.6 mph - N/A   Clear
7:56 PM 35.6 °F 32.8 °F 3.2 °F 26% 30.01 in 10.0 mi WSW 3.5 mph - N/A   Clear
8:16 PM 35.6 °F 31.7 °F 1.4 °F 24% 30.01 in 10.0 mi West 4.6 mph - N/A   Clear
8:36 PM 33.8 °F - 1.4 °F 25% 30.02 in 10.0 mi Calm Calm - N/A   Clear
8:56 PM 30.2 °F - 8.6 °F 40% 30.02 in 10.0 mi Calm Calm - N/A   Clear
9:16 PM 28.4 °F - 8.6 °F 43% 30.03 in 10.0 mi Calm Calm - N/A   Clear
9:36 PM 28.4 °F - 8.6 °F 43% 30.04 in 10.0 mi Calm Calm - N/A   Clear
9:56 PM 28.4 °F - 12.2 °F 51% 30.04 in 10.0 mi Calm Calm - N/A   Clear
10:16 PM 26.6 °F - 10.4 °F 51% 30.05 in 10.0 mi Calm Calm - N/A   Clear
10:36 PM 26.6 °F - 10.4 °F 51% 30.05 in 10.0 mi Calm Calm - N/A   Clear
10:56 PM 26.6 °F - 12.2 °F 55% 30.05 in 10.0 mi Calm Calm - N/A   Clear
11:16 PM 24.8 °F - 12.2 °F 59% 30.05 in 10.0 mi Calm Calm - N/A   Clear
11:36 PM 26.6 °F - 12.2 °F 55% 30.07 in 10.0 mi Calm Calm - N/A   Clear
11:56 PM 24.8 °F - 12.2 °F 59% 30.07 in 10.0 mi Calm Calm - N/A   Clear